Torna al catalogo

STARLINK-30379

AttivoComunicazioniVLEO
NORAD 57811·PAYLOAD·🇺🇸 United States

Lanciato Sep 9, 2023 da Cape Canaveral Space Force Station

Loading…

Prossimi Passaggi (prossime 24 ore)

TLE

AggiornatoSource: CelesTrak SupGP

Epoca: Sep 15, 2026, 01:55 UTC

1 57811C 23138D   26258.08034722 -.00024818  00000+0 -89886-3 0  2582
2 57811  43.0023 244.5705 0001210 266.9958  92.1734 15.27592507    12

Traccia STARLINK-30379 in tempo reale con AllMySat

Download on the App Store